Starlink 32813

operational
NORAD ID: 62869 Int'l Des: 2025-022 Owner: SPXS Country: US Constellation: starlink
LEOCIRCULAR

关于 Starlink 32813

正在加载描述...

实时位置

正在加载3D地球...

即将过境

高度历史

Altitude vs Time

uPlot chart will show altitude changes over time

两行轨道根数

1 62869U 25022R 26033.13499756 .00026311 00000-0 89766-3 0 9992
2 62869 53.1582 294.9702 0001848 95.9931 264.1281 15.30187308 56457
Epoch: Feb 2, 2026 • Age: 24 hours

当前状态

高度 475.4 km
速度 7.63 km/s
星下点 2.56°N, 77.8°W
发射日期 Feb 2, 2025
运行时间 0.9 years
类型 internet

技术详情

分类 Payload
质量 730.00 kg
干质量 700.00 kg
总质量 730.00 kg
长度 0.30 m
直径 4.10 m
跨度 29.00 m
形状 Box + pan
制造商 SPXS
平台类型 Starlink V2M
阶段状态 In Orbit
所有者/国家 SPXS/US

大型星座

Loading constellations...